Погода Охоны

Погода Охоны : погода сейчас, прогноз погоды и архив. Всё, что Вы хотите узнать о погоде Охоны!

Поиск расширенной информации на нашем сайте:

Другие новости

Новости СМИ2

Главная страница сайта

Новости сайта

02.10.2013

Напоминаем, что на нашем новом сайте вы можете получить высокодетализированные прогнозы погоды по пунктам России, СНГ и мира (включающие важные для авиации метеовеличины, такие как направление и скорость ветра, видимость, явления погоды, количество и форма облачности, нижняя и верхняя граница облачности), а также ознакомиться с разнообразными материалами по авиационной метеорологии и подборкой полезных ссылок на эту тему.

Сайт Метеоцентр.Азия посвящён разработке технологий оптимизации авиаметеорологического обслуживания, включая проектирование и перспективное создание нескольких автоматизированных авиаметеорологических систем:
- система выпуска высокодетальных прогностических карт явлений погоды для нижнего воздушного пространства по России и ближнему зарубежью;
- система верификации прогнозов TAF (выпускаемых синоптиками официальных АМСГ РФ и ближнего зарубежья) и AUTOTAF (выпускаемых сайтом Метеоцентр.Азия) - выявление ошибок, онлайн-сопоставление с фактической погодой METAR, автоматическое внесение коррективов в прогнозы при резком отклонении фактической погоды от прогноза, подсчёт оправдываемости прогнозов по элементам и в целом;
- система обработки, анализа и отображения авиаметеорологической информации для применения провайдерами метеорологической информации.

Рекомендуем: Санаторий прометей плюс.

Погода Охоны - сегодня

Время (UTC), дата Ветер
(°,м/с) 
Видим.   Явления Облачность Т
(°С)
Тd
(°С)
f(%) Тe
(°С)
Pmin
(гПа)
dP
(гПа)
Po
(мм)
O2
(г/м3)
Тmin Tmax R s Состояние
почвы
18 19.06.17 300 (СЗ) 20000 м  {гроза, ливн. осадки}  6/4 300 м кучево-дожд., средняя 
[Cb cap|Ac lent]
+15.4 +6.6 56 +16  1004.1  0.8  740  281    +21.1  0.6     
21 19.06.17 280 (З) н/о    н/о 
+11.4 +6.5 72 +13  1004.8  0.4  741  285           
00 20.06.17 250 (З) н/о    н/о 
+8.1 +6.8 91 +8  1005  740  289           
03 20.06.17 250 (З) н/о    н/о 
+11.7 +7.7 76 +12  1004.7  740  285  +7.6         
06 20.06.17 290 (З) 20000 м    1/1 600 м 
[Cu med, cong]
+17.5 +6.7 49 +18  1003.9  -0.5  740  279  +7.6        влажная 
09 20.06.17 270 (З) 5{12}  н/о    н/о 
+18.9 +6 43 +19  1002.4  -1.3  739  278           
12 20.06.17 260 (З) 6-11{11}  н/о    н/о 
+15.8 +7.1 56 +15  1001.9  -0.7  739  280           
15 20.06.17 140 (ЮВ) 1{11}  н/о    н/о 
+13.4 +9.9 79 +16  998.4  -3.6  736  281           
18 20.06.17 170 (Ю) 20000 м  {ливн. осадки}  10/10 400 м кучево-дожд. 
[Cb cap]
+11.9 +10 88 +15  994.9  -3.5  733  281    +19.5  0.5     
21 20.06.17 250 (З) н/о    н/о 
+11.7 +11.2 97 +14  992.1  -2.7  731  280           
00 21.06.17 250 (З) н/о    н/о 
+12.1 +10.5 90 +14  991.7  -0.4  731  280           
03 21.06.17 250 (З) н/о    н/о 
+10.8 +9.7 93 +11  990.7  -1  730  281  +10.7         
06 21.06.17 270 (З) 6-10{15}  20000 м  {ливн. осадки}  10/10 480 м кучево-дожд. 
[Cb cap]
+9.6 +7.7 88 +8  992.2  1.4  731  283  +9.5      влажная 
09 21.06.17 270 (З) 6-10{13}  н/о    н/о 
+11.1 +7.3 77 +10  993.6  1.4  732  282           
12 21.06.17 270 (З) 5-10{12}  н/о    н/о 
+11.2 +9.4 89 +11  994.5  0.9  733  282           
15 21.06.17 280 (З) 4{12}  н/о    н/о 
+9.9 +8.5 91 +9  996.2  1.6  734  284           
18 21.06.17 270 (З) 10 км  слаб. ливневой дождь  10/10 180 м кучево-дожд. 
[Cb cap]
+9.6 +8.7 94 +9  996.9  0.7  735  284    +11.8     
21 21.06.17 270 (З) н/о    н/о 
+9.7 +8.8 94 +9  997.2  0.4  735  284           
00 22.06.17 280 (З) н/о    н/о 
+9.4 +8.1 92 +9  997.7  0.4  735  285           
03 22.06.17 280 (З) 4{10}  н/о    н/о 
+8.8 +5.5 80 +8  999  1.3  736  286  +8.4         
06 22.06.17 300 (СЗ) 4-11{11}  20000 м  {ливн. осадки}  8/5 600 м верхняя 
[Cu med, cong|Ci fib]
+11.5 +4.2 61 +11  1000.2  1.3  737  284  +8.4      влажная 
09 22.06.17 300 (СЗ) 4{12}  н/о    н/о 
+14.4 +3.2 47 +14  1001  0.9  738  282           
12 22.06.17 280 (З) 4{11}  н/о    н/о 
+14.7 +4.9 52 +15  1001.4  0.4  738  281           
15 22.06.17 260 (З) 5{11}  н/о    н/о 
+14.5 +5.8 56 +14  1001.6  0.3  738  282           
18 22.06.17 240 (ЮЗ) 1{10}  20000 м    8/4 300 м кучево-дожд., верхняя 
[Cb cap|Cs]
+11.5 +7 74 +13  1001.9  0.1  738  284    +16       
Время (UTC), дата Ветер
(°,м/с) 
Видим.   Явления Облачность Т
(°С)
Тd
(°С)
f(%) Тe
(°С)
Pmin
(гПа)
dP
(гПа)
Po
(мм)
O2
(г/м3)
Тmin Tmax R s Состояние
почвы

Для получения пояснительной информации подведите курсор к названию столбца.

ПОГОДА Охоны - архив

Всё, что Вы хотите узнать о погоде Охоны - удобно и подробно!

Выберите нужную дату (начиная с 1 января 2015* года) и нажмите кнопку "Найти".
Будут отображены архивные сводки погоды по пункту Охоны, начиная с указанной даты.


Отображать данные в формате CSV (для использования в таблицах Excel)


Внимание! Наш архив погоды предназначен исключительно для личного некоммерческого использования в познавательных целях. Если Вам необходимы официальные справки о состоянии погоды (для производственных, юридических, коммерческих и т.п. целей), обращайтесь в органы Росгидромета.

*Примечание: данная дата относится к архиву по метеостанциям СССР (Россия, СНГ, Балтия).
Архив по метеостанциям Зарубежной Европы и Азии (кроме Китая) хранится 10 дней, по другим регионам земного шара (Китай, Африка, Америка, Австралия, Океания) - 1 день.

Охоны - район местоположения метеостанции


Название, широта, долгота, высота метеостанции:
Охоны 58.6°ш. 35.6°д. 145 м над ур. моря [Российская Федерация]

Дополнительная информация

В oтличие oт бoльшинства пoгoдных сайтoв мы публикуем пoдрoбную метеoинфoрмацию в детальнoм прoфессиoнальнoм фoрмате.

Характеристики температуры и влажнoсти вoздуха измеряются на высoте 2 м в тени вдали oт зданий и деревьев.
Скoрoсть ветра измеряется на высoте 10 м (на урoвне рoста челoвека скoрoсть ветра ниже в 1.5-2 раза). Если метеoстанция нахoдится в гoрoде или в лесу, тo скoрoсть ветра занижена на 2-4 м/с пo сравнению с oткрытым местoм. Скoрoсть ветра над акватoриями крупных рек и oзёр, а также на вершинах хoлмoв на 2-5 м/с выше, чем в oбычных услoвиях.
Атмoсфернoе давление в разных тoчках местнoсти мoжет значительнo oтличаться oт давления на метеoстанции, в зависимoсти oт услoвий рельефа (при пoдъёме на 10 м давление пoнижается примернo на 1 мм рт.ст.).